DateTimeUTC,F1_A11,F1_S11,BsB_S11,BsG_S11,BsR_S11,BbsB_S11,BbsG_S11,BbsR_S11,BaB_A11,BaG_A11,BaR_A11,Tu_S11,T_S11,Uu_S11,U_S11,P_S11,T1_A11
2021-10-15T17:00:00Z,00000200,21000000,,,,,,,-000.02,-000.10,-000.15,17.5,24.5,,00.0,0668.3,31.0
2021-10-15T17:01:00Z,00000200,21000000,,,,,,,0000.02,0000.16,-000.08,17.5,24.5,,00.0,0668.3,31.0
2021-10-15T17:02:00Z,00000200,21000000,,,,,,,-000.15,0000.32,0000.04,17.6,24.6,,00.0,0668.3,31.0
2021-10-15T17:03:00Z,00000200,61000000,,,,,,,0000.28,0000.19,0000.30,17.6,24.6,,00.0,0668.3,31.0
2021-10-15T17:04:00Z,00000200,41000000,-001.00,-000.18,0000.14,-000.17,0000.14,0000.00,-000.41,-000.55,-000.34,18.0,24.5,,00.0,0669.3,31.0
2021-10-15T17:05:00Z,00000200,01000000,-000.60,-000.20,0000.41,-000.22,-000.39,-000.00,0000.30,-000.01,-000.03,18.1,24.5,,00.0,0669.3,31.0
2021-10-15T17:06:00Z,00000200,01000000,-000.60,-000.24,0000.53,0000.09,0000.31,-000.04,-000.39,-000.32,-000.33,18.1,24.5,,00.0,0669.3,31.0
2021-10-15T17:07:00Z,00000200,01000000,0000.05,0000.08,0000.10,0000.17,-000.12,-000.27,-000.50,-000.64,-000.18,18.0,24.5,,00.0,0669.3,31.0
2021-10-15T17:08:00Z,00000200,01000000,0000.36,0000.20,0000.12,-000.32,-000.39,-000.10,-000.16,-000.01,-000.31,17.9,24.5,,00.0,0669.3,31.0
2021-10-15T17:09:00Z,00000200,01000000,0000.24,0000.24,-000.10,0001.06,-000.08,-000.14,-000.68,-000.41,-000.50,17.8,24.4,,00.0,0669.3,30.9
2021-10-15T17:10:00Z,00000200,01000000,0000.26,-000.04,0000.40,-000.08,0000.01,0000.16,0000.05,-000.58,0000.01,17.8,24.4,,00.0,0669.3,30.9
2021-10-15T17:11:00Z,00000200,01000000,-000.02,-000.05,0000.29,-000.18,0000.15,0000.23,-000.12,0000.21,0000.06,17.7,24.3,,00.0,0669.3,30.9
2021-10-15T17:12:00Z,00000200,01000000,0000.16,-000.31,0000.03,-000.85,0000.09,-000.16,-000.00,0000.17,-000.15,17.7,24.3,,00.0,0669.3,30.9
2021-10-15T17:13:00Z,00000200,01000000,0000.24,-000.45,-000.49,-000.29,0000.02,-000.46,0000.50,0000.41,0000.67,17.7,24.3,,00.0,0669.3,30.9
2021-10-15T17:14:00Z,00000200,01000000,-000.19,-000.12,0000.08,-000.28,-000.15,0000.24,0000.39,0000.44,0000.23,17.8,24.3,,00.0,0669.3,30.9
2021-10-15T17:15:00Z,00000200,01000000,0000.38,0000.01,0000.39,-000.42,-000.29,0000.13,0000.11,0000.07,0000.60,17.8,24.4,,00.0,0669.3,31.0
2021-10-15T17:16:00Z,00000200,01000000,0000.55,0000.23,-000.12,0000.15,-000.24,-000.27,0000.45,0000.22,-000.46,17.9,24.4,,00.0,0669.3,31.0
2021-10-15T17:17:00Z,00000200,01000000,-000.24,0000.02,0000.20,0000.25,-000.12,-000.47,-000.39,0000.03,-000.01,17.9,24.4,,00.0,0669.3,31.0
2021-10-15T17:18:00Z,00000200,01000000,-000.12,-000.12,0000.05,0000.02,-000.12,-000.49,0000.12,0000.08,0000.28,18.0,24.4,,00.0,0669.3,31.0
2021-10-15T17:19:00Z,00000200,01000000,-000.70,-000.09,0000.09,0000.09,-000.36,-000.25,-000.52,-000.44,-000.55,18.0,24.5,,00.0,0669.3,31.0
2021-10-15T17:20:00Z,00000200,01000000,0001.15,0000.25,-000.06,-000.21,-000.21,-000.08,-000.53,-000.86,-000.62,18.0,24.5,,00.0,0669.3,31.0
2021-10-15T17:21:00Z,00000200,01000000,-000.65,0000.22,0000.27,-000.29,-000.20,-000.12,-000.79,-000.23,-000.29,17.9,24.5,,00.0,0669.3,31.0
2021-10-15T17:22:00Z,00000200,01000000,-000.77,-000.01,0000.30,0000.13,-000.00,-000.02,-000.38,-000.99,-000.33,17.9,24.4,,00.0,0669.3,30.9
2021-10-15T17:23:00Z,00000200,01000000,-000.49,-000.34,-000.11,0000.50,-000.22,-000.09,-000.02,0000.11,-000.19,17.8,24.4,,00.0,0669.3,30.9
2021-10-15T17:24:00Z,00000200,01000000,0000.07,0000.01,0000.02,-000.19,-000.20,-000.21,0000.59,0000.51,0000.21,17.7,24.3,,00.0,0669.3,30.9
2021-10-15T17:25:00Z,00000200,01000000,0000.00,-000.15,-000.20,-000.40,0000.05,0000.06,0000.22,0000.48,0000.70,17.6,24.3,,00.0,0669.2,30.9
2021-10-15T17:26:00Z,00000200,01000000,-000.15,0000.12,0000.22,-000.31,0000.20,-000.14,0000.64,0000.33,0000.12,17.6,24.2,,00.0,0669.3,30.9
2021-10-15T17:27:00Z,00000200,01000000,-000.64,-000.10,0000.28,0000.26,-000.35,-000.42,0000.30,0000.19,0000.02,17.6,24.2,,00.0,0669.3,30.9
2021-10-15T17:28:00Z,00000200,01000000,-000.54,0000.11,0000.20,0000.23,0000.04,0000.05,-000.11,0000.07,0000.32,17.6,24.2,,00.0,0669.3,31.0
2021-10-15T17:29:00Z,00000200,01000000,-000.35,0000.15,0000.21,0000.27,-000.26,0000.13,-000.12,0000.25,0000.00,17.6,24.2,,00.0,0669.3,30.9
2021-10-15T17:30:00Z,00000200,01000000,-000.09,0000.19,0000.27,-000.35,-000.35,0000.41,-000.09,-000.23,-000.17,17.7,24.3,,00.0,0669.3,31.0
2021-10-15T17:31:00Z,00000200,01000000,-000.86,0000.17,0000.01,-000.05,-000.21,-000.19,-000.34,-000.11,-000.31,17.7,24.3,,00.0,0669.3,31.0
2021-10-15T17:32:00Z,00000200,01000000,-000.25,0000.08,0000.22,-000.15,-000.08,-000.11,0000.20,-000.40,0000.15,17.8,24.3,,00.0,0669.4,31.0
2021-10-15T17:33:00Z,00000200,01000000,-000.10,0000.40,0000.27,0000.05,-000.02,-000.39,-000.41,0000.17,-000.29,17.8,24.3,,00.0,0669.4,31.0
2021-10-15T17:34:00Z,00000200,01000000,0000.25,0000.23,0000.25,-000.26,0000.04,0000.02,0000.03,-000.23,0000.04,17.9,24.4,,00.0,0669.4,31.0
2021-10-15T17:35:00Z,00000200,01000000,0000.37,0000.32,0000.24,-000.60,-000.08,0000.27,-000.45,-000.28,-000.20,17.9,24.4,,00.0,0669.4,31.0
2021-10-15T17:36:00Z,00000200,01000000,0000.34,0000.18,0000.44,0000.18,-000.21,-000.05,-000.07,-000.28,-000.18,18.0,24.4,,00.0,0669.4,31.0
2021-10-15T17:37:00Z,00000200,01000000,0000.33,0000.25,0000.36,-000.44,-000.30,0000.13,-000.53,-000.47,-000.31,17.9,24.4,,00.0,0669.4,31.0
2021-10-15T17:38:00Z,00000200,01000000,0000.28,0000.36,0000.18,-000.06,-000.08,0000.07,-000.19,-000.20,-000.34,17.8,24.4,,00.0,0669.4,30.9
2021-10-15T17:39:00Z,00000200,01000000,0000.94,0000.42,0000.26,-000.31,0000.20,-000.03,-000.74,-000.64,-000.33,17.8,24.4,,00.0,0669.5,30.9
2021-10-15T17:40:00Z,00000200,01000000,0000.61,0000.52,0000.41,-000.09,-000.35,0000.23,0000.30,0000.08,0000.30,17.7,24.3,,00.0,0669.5,30.9
2021-10-15T17:41:00Z,00000200,01000000,0000.11,0000.33,0000.23,-000.05,-000.05,0000.19,-000.04,0000.08,0000.02,17.7,24.3,,00.0,0669.5,30.9
2021-10-15T17:42:00Z,00000200,01000000,-000.13,0000.58,0000.41,-000.56,-000.11,0000.04,-000.16,-000.15,-000.25,17.6,24.2,,00.0,0669.5,30.9
2021-10-15T17:43:00Z,00000200,01010000,0000.11,0000.35,0000.11,-000.05,-000.26,-000.07,0000.04,0000.21,0000.08,17.7,24.2,,00.0,0669.6,30.9
2021-10-15T17:44:00Z,00000200,01000000,-000.39,0000.35,0000.18,0000.56,-000.07,-000.17,-000.29,-000.48,-000.03,17.7,24.3,,00.0,0669.6,30.9
2021-10-15T17:45:00Z,00000200,01000000,0000.93,0000.28,0000.32,0000.52,-000.11,0000.02,0000.27,-000.19,0000.08,17.7,24.3,,00.0,0669.6,31.0
2021-10-15T17:46:00Z,00000200,01000000,0000.81,0000.44,0000.48,0000.51,-000.06,-000.10,-000.35,0000.19,-000.24,17.8,24.3,,00.0,0669.6,31.0
2021-10-15T17:47:00Z,00000200,01000000,0000.05,0000.13,0000.01,-000.23,-000.40,-000.35,-000.13,-000.15,-000.17,17.8,24.4,,00.0,0669.6,31.0
2021-10-15T17:48:00Z,00000200,01000000,0000.41,-000.01,0000.60,-000.23,0000.35,0000.33,0000.03,-000.28,-000.16,17.8,24.4,,00.0,0669.6,31.0
2021-10-15T17:49:00Z,00000200,01000000,0000.28,0000.53,0000.21,-000.28,-000.42,0000.03,-000.38,-000.15,-000.06,17.8,24.4,,00.0,0669.5,31.0
2021-10-15T17:50:00Z,00000200,01000000,0001.21,0000.47,0000.27,0000.56,-000.26,0000.22,-000.07,-000.13,-000.26,17.7,24.3,,00.0,0669.5,31.0
2021-10-15T17:51:00Z,00000200,01000000,0000.46,0000.05,-000.02,-000.71,0000.02,-000.31,-000.26,-000.04,-000.01,17.6,24.3,,00.0,0669.5,30.9
2021-10-15T17:52:00Z,00000200,01000000,0000.29,0000.28,-000.33,0000.17,-000.07,-000.26,0000.74,0000.41,0000.01,17.5,24.2,,00.0,0669.4,30.9
2021-10-15T17:53:00Z,00000200,01000000,0000.32,-000.15,0000.30,-000.17,0000.12,0000.24,0000.31,0000.38,0000.12,17.5,24.2,,00.0,0669.4,30.9
2021-10-15T17:54:00Z,00000200,01000000,0000.39,-000.40,0000.26,-000.02,-000.21,0000.03,0000.55,0000.07,0000.62,17.4,24.1,,00.0,0669.4,30.9
2021-10-15T17:55:00Z,00000200,01000000,-000.10,-000.07,0000.09,0000.51,-000.12,0000.07,-000.21,0000.35,0000.23,17.3,24.1,,00.0,0669.3,30.9
2021-10-15T17:56:00Z,00000200,01000000,-000.46,-000.07,-000.10,-000.22,-000.04,-000.19,0000.57,0000.38,0000.43,17.3,24.0,,00.0,0669.3,30.9
2021-10-15T17:57:00Z,00000200,41000000,,,,,,,0001.76,0001.46,0001.17,17.3,24.0,,00.0,0669.2,30.9
2021-10-15T17:58:00Z,00000200,61000000,,,,,,,-000.83,-000.42,-000.42,17.0,24.2,,00.0,0668.4,30.9
2021-10-15T17:59:00Z,00000200,21000000,,,,,,,-000.02,-000.35,-000.32,17.0,24.3,,00.0,0668.4,30.9
